Location: Marcé
(47.5801°N, 0.3280°W)
Time: 14:05:24
(UTC+01:00)

Transit 2A - Visible Passes

Search period start: 09 December 2021 00:00
Search period end: 19 December 2021 00:00
Orbit: 591 x 967 km, 66.7° (Epoch: 09 December)

Date Brightness Start Highest point End Pass type
(mag) Time Alt. Az. Time Alt. Az. Time Alt. Az.
09 Dec 8.5 05:32:34 14° N 05:34:28 16° NNE 05:38:19 10° NE visible
09 Dec 7.6 07:13:39 10° NNW 07:19:37 38° NE 07:25:23 10° ESE visible
10 Dec 8.6 04:59:24 15° N 04:59:44 15° NNE 05:03:10 10° NE visible
10 Dec 7.9 06:39:53 12° NNW 06:45:07 31° NE 06:50:38 10° E visible
11 Dec 8.9 04:26:14 13° NNE 04:26:14 13° NNE 04:28:05 10° NE visible
11 Dec 8.1 06:06:44 15° NNW 06:10:35 26° NNE 06:15:45 10° E visible
11 Dec 6.6 07:48:21 10° NW 07:54:48 84° NE 08:00:56 10° SE visible
12 Dec 8.3 05:33:36 18° N 05:35:59 22° NNE 05:40:45 10° ENE visible
12 Dec 6.8 07:14:07 10° NNW 07:20:31 65° NE 07:26:36 10° SE visible
13 Dec 8.4 05:00:30 18° NNE 05:01:19 19° NNE 05:05:41 10° ENE visible
13 Dec 7.1 06:41:00 15° NNW 06:46:09 50° NE 06:52:07 10° ESE visible
14 Dec 8.7 04:27:27 16° NNE 04:27:27 16° NNE 04:30:33 10° ENE visible
14 Dec 7.5 06:07:58 21° NNW 06:11:44 40° NE 06:17:31 10° ESE visible
14 Dec 6.7 07:49:05 10° NW 07:55:15 53° WSW 08:01:05 10° S visible
15 Dec 9.1 03:54:28 12° NE 03:54:28 12° NE 03:55:25 10° NE visible
15 Dec 7.8 05:34:58 26° N 05:37:15 32° NE 05:42:47 10° E visible
15 Dec 6.4 07:15:29 14° NW 07:21:06 71° WSW 07:27:06 10° SSE visible
16 Dec 8.0 05:02:03 26° NNE 05:02:43 27° NE 05:07:55 10° E visible
16 Dec 6.4 06:42:33 22° NNW 06:46:53 88° NE 06:52:58 10° SSE visible
17 Dec 8.4 04:29:11 22° NE 04:29:11 22° NE 04:32:57 10° E visible
17 Dec 6.6 06:09:41 33° NNW 06:12:36 68° NE 06:18:39 10° SE visible
17 Dec 7.4 07:50:15 10° NW 07:55:23 27° WSW 08:00:15 10° SSW visible
18 Dec 9.0 03:56:24 14° ENE 03:56:24 14° ENE 03:57:53 10° ENE visible
18 Dec 7.0 05:36:55 45° N 05:38:15 53° NE 05:44:13 10° SE visible
18 Dec 7.0 07:17:26 18° WNW 07:21:22 36° WSW 07:26:46 10° S visible
